128  
ASUS42 KMHX 240514  
RWRMHX  
WEATHER ROUNDUP FOR EASTERN NORTH CAROLINA  
NATIONAL WEATHER SERVICE NEWPORT/MOREHEAD CITY NC  
100 AM EDT FRI SEP 24 2021  
 
NOTE: "FAIR" INDICATES FEW OR NO CLOUDS BELOW 12,000 FEET  
WITH NO SIGNIFICANT WEATHER AND/OR S TO VISIBILITY
 
 
NCZ015>017-031-032-045>047-102-103-240600-  
NORTH COAST  
 
CITY SKY/WX TMP DP RH WIND PRES REMARKS
 
EDENTON CLOUDY 68 64 88 N9 29.98F  
ELIZABETH CITY CLOUDY 67 65 93 NW6 29.97F  
KITTY HAWK CLOUDY 68 66 93 CALM 29.95F  
MANTEO CLOUDY 68 65 90 NE7 29.96F  
 

 
 
NCZ045>047-081-094-103-104-240600-  
CENTRAL COAST  
 
CITY SKY/WX TMP DP RH WIND PRES REMARKS
 
FRISCO MOCLDY 71 69 93 NE5G17 29.93F  
 

 
 
NCZ095-097-098-100-101-240600-  
SOUTHERN COAST  
 
CITY SKY/WX TMP DP RH WIND PRES REMARKS
 
PINEY ISLAND CLOUDY 73 65 75 N9 29.95S  
BEAUFORT CLOUDY 70 66 87 N10 29.95S  
CAPE CARTERET CLEAR 67 63 87 N7 29.97S  
JACKSONVILLE CLEAR 64 58 80 N9 29.98R  
WILMINGTON CLEAR 64 58 80 N9 29.99R  
 

 
 
NCZ011>013-027>030-043-044-078>080-089-090>093-098-240600-  
COASTAL PLAIN  
 
CITY SKY/WX TMP DP RH WIND PRES REMARKS
 
AHOSKIE CLEAR 57 55 93 CALM 30.00F  
ROCKY MOUNT CLEAR 60 52 74 N5 30.01F  
GREENVILLE CLEAR 59 55 88 CALM 30.02S  
WASHINGTON PTCLDY 61 56 82 NW5 30.00S  
GOLDSBORO CLEAR 62 51 68 N6 29.98F  
KINSTON CLEAR 60 55 83 N5 30.01S  
NEW BERN CLEAR 65 59 81 N9 29.99R  
HAVELOCK NOT AVBL  
KENANSVILLE CLEAR 57 55 94 MISG 30.01S  
RICHLANDS CLEAR 61 58 90 N3 30.00S  
CLINTON CLEAR 61 57 87 CALM 30.02S  
ELIZABETHTOWN CLEAR 61 55 80 N5 30.01F  
WHITEVILLE CLEAR 62 55 77 N3 30.02S  
 

 
 
AMZ130-135-150-152-154-156-158-170-250-252-270-ANZ085-086-088-633-658-670-240600-  
MARINE OBSERVATIONS  
 
STATION/POSITION TIME TEMP WIND PRES WAVE SWELL
 
AIR SEA DIR/SP/G HT/PER HT/PER  
(UTC) (F) (DEG/KT/KT) (MB) (FT/S) (FT/S)  
64 E VA BEACH 0450 71 350/ 12/ 16 1013.7 6/10 5/10  
64 E VA BEACH 0430 71 76 N/A 7/10 3/10  
DUCK PIER 0430 70 10/ 9/ 12 1014.3  
2 E DUCK 0456 76 N/A 4/ 8 2/11  
10 NE DUCK 0456 76 N/A 5/ 8 2/11  
OREGON INLET 0430 68 78 350/ 7/ 12 1014.4  
13E OREGON INLT 0456 77 N/A 5/ 7 5/ 7  
13E CAPE HATTERA 0426 78 N/A 5/11 2/11  
HATTERAS CG 0430 72 78 10/ 16/ 19 1014.0  
DIAMOND BUOY 0450 75 82 360/ 17/ 21 1012.8 6/ 8 5/ 8  
CAPE LOOKOUT 0500 72 10/ 13/ 16 1014.5  
BEAUFORT LAB 0430 72 79 360/ 8/ 11 1014.8  
30 SE NEW RVR IN 0408 76 20/ 14/ 21 1013.9  
30 SE NEW RVR IN 0426 80 N/A 5/10 2/11  
27 SE WRIGHTSVLE 0408 76 81 10/ 14/ 19 1014.0  
5 SE WRIGHTSVLE NOT AVBL  
27 SE WRIGHTSVL 0408 76 81 10/ 14/ 19 1014.0  
FRYING PAN BUOY 0450 76 81 10/ 12/ 16 1014.2 4/ 9 3/ 9  
225 S CAPE HAT 0450 80 82 180/ 16/ 17 1012.3 6/ 9 5/ 9  
41 SE CHARLESTON 0450 77 83 360/ 10/ 14 1014.7 4/10 3/10  
 

 
 
 
CLICK HERE TO GO TO PREVIOUS BULLETINS.

The Nexlab NC Page Main Text Page